This demonstration page uses our WeatherBlox Daily Observations layout. Learn more.

Hourly Observations for October 12, 2015

Temp ( °F °C ) Dew Point ( °F °C ) Humidity (%) Winds ( mph kmh ) Pressure ( in mb ) Visibility ( mi km ) Precip ( " mm )
12:15 am 00:15 Clear 59 15.1 42 5.6 53 53 N 8 13 29.77 1008 10 16.0934 0 0
12:35 am 00:35 Clear 58 14.6 42 5.7 55 55 N 8 13 29.8 1009 10 16.0934 0 0
12:55 am 00:55 Clear 56 13.6 42 5.5 58 58 N 7 11 29.83 1010 10 16.0934 0 0
1:15 am 01:15 Clear 58 14.2 42 5.7 57 57 N 8 13 29.83 1010 10 16.0934 0 0
1:35 am 01:35 Clear 57 13.9 42 5.5 57 57 N 8 13 29.85 1011 10 16.0934 0 0
1:55 am 01:55 Clear 58 14.2 41 5.1 55 55 N 7 11 29.85 1011 10 16.0934 0 0
2:15 am 02:15 Clear 57 13.7 41 5.2 57 57 N 6 9 29.85 1011 10 16.0934 0 0
2:35 am 02:35 Clear 53 11.8 41 5.1 64 64 NNW 5 7 29.88 1012 10 16.0934 0 0
2:55 am 02:55 Clear 52 11 41 5 67 67 NW 5 7 29.91 1013 10 16.0934 0 0
3:15 am 03:15 Clear 51 10.7 41 5 68 68 NW 7 11 29.94 1014 10 16.0934 0 0
3:35 am 03:35 Clear 51 10.6 41 5 69 69 NW 8 13 29.94 1014 10 16.0934 0 0
3:55 am 03:55 Clear 51 10.8 40 4.7 66 66 NW 9 15 29.94 1014 10 16.0934 0 0
4:15 am 04:15 Clear 52 10.9 40 4.5 65 65 NW 9 15 29.94 1014 10 16.0934 0 0
4:35 am 04:35 Clear 51 10.8 39 4 63 63 NW 8 13 29.97 1015 10 16.0934 0 0
4:55 am 04:55 Clear 51 10.5 39 3.7 63 63 NW 7 11 29.97 1015 10 16.0934 0 0
5:15 am 05:15 Clear 51 10.8 37 2.9 58 58 NW 7 11 29.97 1015 10 16.0934 0 0
5:35 am 05:35 Clear 51 10.6 36 2.4 57 57 NW 7 11 29.97 1015 10 16.0934 0 0
5:55 am 05:55 Clear 50 10.2 36 2 57 57 NW 6 9 29.97 1015 10 16.0934 0 0
6:15 am 06:15 Clear 50 10 35 1.7 57 57 NW 7 11 29.97 1015 10 16.0934 0 0
6:35 am 06:35 Clear 49 9.5 35 1.5 58 58 NW 7 11 30 1016 10 16.0934 0 0
6:55 am 06:55 Clear 49 9.3 34 1.1 57 57 WNW 7 11 30.03 1017 10 16.0934 0 0
7:15 am 07:15 Clear 48 8.8 33 0.8 58 58 NW 5 7 30.03 1017 10 16.0934 0 0
7:35 am 07:35 Clear 46 7.7 34 0.9 62 62 WNW 5 7 30.03 1017 10 16.0934 0 0
7:55 am 07:55 Sunny 44 6.6 34 1 68 68 WNW 7 11 30.06 1018 10 16.0934 0 0
8:15 am 08:15 Sunny 45 7.2 34 1.2 66 66 WNW 6 9 30.06 1018 10 16.0934 0 0
8:35 am 08:35 Sunny 47 8.6 34 1.2 60 60 WNW 7 11 30.06 1018 10 16.0934 0 0
8:55 am 08:55 Sunny 52 10.9 33 0.4 49 49 NW 9 15 30.03 1017 10 16.0934 0 0
9:15 am 09:15 Sunny 56 13.1 31 -0.3 40 40 NW 10 17 30 1016 10 16.0934 0 0
9:35 am 09:35 Sunny 58 14.5 30 -1.1 34 34 NW 13 20 30 1016 10 16.0934 0 0
9:55 am 09:55 Sunny 61 16 29 -1.6 30 30 NW 14 22 30 1016 10 16.0934 0 0
10:10 am 10:10 Sunny 62 16.5 29 -1.8 29 29 NW 16 26 29.97 1015 10 16.0934 0 0
10:35 am 10:35 Sunny 64 17.5 28 -2.4 26 26 NNW 21 33 29.97 1015 10 16.0934 0 0
10:55 am 10:55 Sunny 65 18.1 27 -2.9 24 24 NNW 24 39 29.97 1015 10 16.0934 0 0
11:15 am 11:15 Sunny 65 18.6 28 -2.4 24 24 NNW 21 33 29.97 1015 10 16.0934 0 0
11:35 am 11:35 Sunny 66 18.9 28 -2.4 24 24 NNW 16 26 29.97 1015 10 16.0934 0 0
11:55 am 11:55 Sunny 67 19.3 27 -2.7 23 23 NNW 20 31 29.97 1015 10 16.0934 0 0
12:15 pm 12:15 Sunny 68 20 28 -2 23 23 NW 12 19 29.94 1014 10 16.0934 0 0
12:35 pm 12:35 Sunny 69 20.4 27 -2.8 21 21 NW 20 31 29.94 1014 10 16.0934 0 0
12:55 pm 12:55 Sunny 70 21 24 -4.2 18 18 NNW 18 30 29.94 1014 10 16.0934 0 0
1:15 pm 13:15 Sunny 70 21.1 26 -3.5 19 19 NW 13 20 29.94 1014 10 16.0934 0 0
1:35 pm 13:35 Sunny 71 21.6 26 -3.1 19 19 NNW 12 19 29.91 1013 10 16.0934 0 0
1:55 pm 13:55 Sunny 72 22.1 26 -3.6 18 18 NW 13 20 29.91 1013 10 16.0934 0 0
2:15 pm 14:15 Sunny 72 22.3 24 -4.3 17 17 NNW 15 24 29.91 1013 10 16.0934 0 0
2:35 pm 14:35 Sunny 72 22.3 24 -4.5 16 16 WNW 13 20 29.88 1012 10 16.0934 0 0
2:55 pm 14:55 Sunny 73 22.7 23 -5.1 15 15 NNW 16 26 29.85 1011 10 16.0934 0 0
3:15 pm 15:15 Sunny 73 22.6 23 -4.9 16 16 NNW 17 28 29.85 1011 10 16.0934 0 0
3:35 pm 15:35 Sunny 73 23 23 -5.1 15 15 NW 18 30 29.85 1011 10 16.0934 0 0
3:55 pm 15:55 Sunny 73 22.9 23 -5.2 15 15 NNW 12 19 29.85 1011 10 16.0934 0 0
4:15 pm 16:15 Sunny 73 23 23 -4.9 15 15 NW 20 31 29.85 1011 10 16.0934 0 0
4:35 pm 16:35 Sunny 73 22.7 23 -5.1 15 15 NW 12 19 29.85 1011 10 16.0934 0 0
4:55 pm 16:55 Sunny 73 22.6 23 -5 15 15 NNW 12 19 29.85 1011 10 16.0934 0 0
5:15 pm 17:15 Sunny 73 22.5 23 -4.8 16 16 NW 14 22 29.85 1011 10 16.0934 0 0
5:35 pm 17:35 Sunny 72 22.2 22 -5.3 15 15 NNW 13 20 29.88 1012 10 16.0934 0 0
5:55 pm 17:55 Sunny 71 21.8 23 -5.1 16 16 NNW 13 20 29.88 1012 10 16.0934 0 0
6:15 pm 18:15 Sunny 70 21.1 24 -4.6 17 17 NNW 10 17 29.88 1012 10 16.0934 0 0
6:35 pm 18:35 Sunny 68 20.2 25 -3.7 20 20 NNW 6 9 29.88 1012 10 16.0934 0 0
6:55 pm 18:55 Sunny 66 18.7 26 -3.3 22 22 NNW 5 7 29.91 1013 10 16.0934 0 0
7:15 pm 19:15 Clear 63 17.3 27 -2.9 25 25 NNW 6 9 29.91 1013 10 16.0934 0 0
7:35 pm 19:35 Clear 61 16.1 27 -2.6 28 28 NNW 5 7 29.91 1013 10 16.0934 0 0
7:55 pm 19:55 Clear 58 14.7 28 -2.3 31 31 Calm 29.94 1014 10 16.0934 0 0
8:15 pm 20:15 Clear 56 13.1 29 -1.6 36 36 NW 3 6 29.97 1015 10 16.0934 0 0
8:35 pm 20:35 Clear 54 12.2 29 -1.6 39 39 WNW 3 6 30 1016 10 16.0934 0 0
8:55 pm 20:55 Clear 55 12.8 29 -1.8 37 37 W 5 7 29.97 1015 10 16.0934 0 0
9:15 pm 21:15 Clear 55 12.7 29 -1.5 38 38 W 6 9 29.97 1015 10 16.0934 0 0
9:35 pm 21:35 Clear 54 12 30 -1.1 41 41 W 7 11 30 1016 10 16.0934 0 0
9:55 pm 21:55 Clear 53 11.7 30 -1 42 42 W 7 11 30 1016 10 16.0934 0 0
10:15 pm 22:15 Clear 53 11.5 30 -1.1 42 42 W 6 9 30 1016 10 16.0934 0 0
10:35 pm 22:35 Clear 53 11.9 30 -1.1 41 41 WNW 6 9 30 1016 10 16.0934 0 0
10:55 pm 22:55 Clear 53 11.5 29 -1.4 41 41 WNW 5 7 30 1016 10 16.0934 0 0
11:15 pm 23:15 Clear 49 9.4 32 -0.2 51 51 NNW 3 6 30.03 1017 10 16.0934 0 0
11:35 pm 23:35 Clear 45 7.4 32 0.2 61 61 W 5 7 30.03 1017 10 16.0934 0 0
11:55 pm 23:55 Clear 46 8 32 -0.1 57 57 W 7 11 30.03 1017 10 16.0934 0 0

Powered by AerisWeather